Back to catalog

ERS 1 DEB

AliveSSO
NORAD 35262·DEBRIS·🇪🇺 EU

Launched Jul 17, 1991 from Guiana Space Centre

Loading…

Next Passes (next 24 hours)

TLE

FreshSource: Space-Track

Epoch: Sep 14, 2026, 14:15 UTC

1 35262U 91050R   26257.59400262  .00002733  00000-0  43454-3 0  9991
2 35262  98.4416 288.1812 0015892 108.5547  43.2950 14.72865140852317

Track ERS 1 DEB in real time with AllMySat

Download on the App Store